カタログに戻る

CZ-3B R/B

運用中HEO
NORAD 43649·ROCKET BODY·🇨🇳 China

打ち上げ Oct 15, 2018 から Xichang Satellite Launch Center

Loading…

次のパス (今後24時間)

TLE

最新Source: Space-Track

元期: Sep 14, 2026, 18:20 UTC

1 43649U 18078C   26257.76421562  .00001249  00000-0  10327-2 0  9996
2 43649  54.8804 182.4424 5529479  28.6038 352.9226  4.64732731133373

AllMySatでCZ-3B R/Bをリアルタイム追跡

Download on the App Store